TimeEST,TemperatureF,Dew PointF,Humidity,Sea Level PressureIn,VisibilityMPH,Wind Direction,Wind SpeedMPH,Gust SpeedMPH,PrecipitationIn,Events,Conditions,WindDirDegrees,DateUTC
12:53 AM,35.1,30.0,82,30.22,10.0,Calm,Calm,-,N/A,,Clear,0,2012-11-10 05:53:00
1:53 AM,35.1,28.9,78,30.22,10.0,Calm,Calm,-,N/A,,Clear,0,2012-11-10 06:53:00
2:53 AM,35.1,30.0,82,30.23,10.0,NNW,5.8,-,N/A,,Clear,330,2012-11-10 07:53:00
3:53 AM,35.1,30.0,82,30.24,10.0,Calm,Calm,-,N/A,,Clear,0,2012-11-10 08:53:00
4:53 AM,34.0,30.0,85,30.25,10.0,Calm,Calm,-,N/A,,Clear,0,2012-11-10 09:53:00
5:53 AM,34.0,28.9,82,30.27,10.0,WSW,3.5,-,N/A,,Clear,250,2012-11-10 10:53:00
6:53 AM,33.1,30.0,89,30.29,8.0,Calm,Calm,-,N/A,,Clear,0,2012-11-10 11:53:00
7:53 AM,39.9,32.0,73,30.32,9.0,Calm,Calm,-,N/A,,Clear,0,2012-11-10 12:53:00
8:53 AM,46.0,35.1,66,30.32,9.0,Calm,Calm,-,N/A,,Partly Cloudy,0,2012-11-10 13:53:00
9:53 AM,48.9,36.0,61,30.32,10.0,Calm,Calm,-,N/A,,Partly Cloudy,0,2012-11-10 14:53:00
10:53 AM,50.0,37.0,61,30.33,9.0,SW,3.5,-,0.00,,Overcast,230,2012-11-10 15:53:00
11:53 AM,52.0,35.1,53,30.31,10.0,Calm,Calm,-,N/A,,Overcast,0,2012-11-10 16:53:00
12:53 PM,54.0,36.0,51,30.30,9.0,North,3.5,-,N/A,,Overcast,360,2012-11-10 17:53:00
1:53 PM,55.0,37.0,51,30.29,8.0,North,3.5,-,N/A,,Overcast,360,2012-11-10 18:53:00
2:53 PM,55.0,39.0,55,30.30,8.0,Calm,Calm,-,N/A,,Overcast,0,2012-11-10 19:53:00
3:53 PM,53.1,37.9,57,30.31,8.0,SE,3.5,-,N/A,,Mostly Cloudy,130,2012-11-10 20:53:00
4:53 PM,52.0,37.0,57,30.32,8.0,Calm,Calm,-,N/A,,Mostly Cloudy,0,2012-11-10 21:53:00
5:53 PM,51.1,37.9,61,30.34,8.0,Calm,Calm,-,N/A,,Mostly Cloudy,0,2012-11-10 22:53:00
6:53 PM,50.0,37.9,63,30.35,9.0,Calm,Calm,-,N/A,,Mostly Cloudy,0,2012-11-10 23:53:00
7:53 PM,46.9,37.0,68,30.37,8.0,SE,4.6,-,N/A,,Clear,140,2012-11-11 00:53:00
8:53 PM,46.9,37.0,68,30.38,8.0,Calm,Calm,-,N/A,,Clear,0,2012-11-11 01:53:00
9:53 PM,44.1,37.0,76,30.40,8.0,Calm,Calm,-,N/A,,Clear,0,2012-11-11 02:53:00
11:53 PM,43.0,37.0,80,30.40,7.0,Calm,Calm,-,N/A,,Partly Cloudy,0,2012-11-11 04:53:00